Regional Weather Roundup
Issued by NWS Sioux Falls, SD

Home | Current Version | Previous Version | Graphics & Text | Print | Product List | Glossary On
Versions: 1 2 3 4 5 6 7 8 9 10 11 12 13 14 15 16 17 18 19 20 21 22 23 24 25 26 27 28 29 30 31 32 33 34 35 36 37 38 39 40 41 42 43 44 45 46 47 48 49 50
000
ASUS43 KFSD 270010
RWRFSD

WEATHER ROUNDUP FOR SE SOUTH DAKOTA/SW MINNESOTA/NW IOWA
NATIONAL WEATHER SERVICE SIOUX FALLS SD
600 PM CST WED NOV 26 2014

NOTE: "FAIR" INDICATES FEW OR NO CLOUDS BELOW 12,000 FEET WITH NO
SIGNIFICANT WEATHER AND OR OBSTRUCTIONS TO VISIBILITY.


SDZ038>040-050-052>070-270100-
SOUTHEAST SOUTH DAKOTA

CITY           SKY/WX    TMP DP  RH WIND       PRES   REMARKS
CHAMBERLAIN    CLOUDY    17   7  67 NE7       30.40R WCI   7
6HR MIN TEMP:  17; 6HR MAX TEMP:  22;

HURON          CLOUDY    10   0  63 N10       30.45R WCI  -4
6HR MIN TEMP:   8; 6HR MAX TEMP:  14;

MADISON        CLOUDY    10   7  85 N15       30.36R WCI  -6
MITCHELL       CLOUDY    13   5  70 N15       30.44R WCI  -3
6HR MIN TEMP:  13; 6HR MAX TEMP:  17; 6HR PCP: TRACE;

SIOUX FALLS    CLOUDY    14   8  77 NW10      30.36R WCI   1
6HR MIN TEMP:  13; 6HR MAX TEMP:  21; 6HR PCP: TRACE;

WINNER         MOCLDY    22  12  65 NE8       30.36R WCI  12
YANKTON        PTCLDY    14   9  79 NW12      30.42R WCI   0
$$

MNZ071-072-080-081-089-090-097-098-270100-
SOUTHWEST MINNESOTA

CITY           SKY/WX    TMP DP  RH WIND       PRES   REMARKS
FAIRMONT       CLOUDY    16   9  73 NW20      30.29R WCI  -1
JACKSON        CLOUDY    14  10  85 NW20      30.30R WCI  -3
LUVERNE        PTCLDY    14   9  79 N6        30.35R WCI   5
MARSHALL       CLOUDY     9   0  66 N18G25    30.37R WCI -10
6HR MIN TEMP:   9; 6HR MAX TEMP:  14;

MONTEVIDEO     CLOUDY     9   3  78 N17       30.40R WCI -10
PIPESTONE      CLOUDY    12   3  67 N9G18     30.33R WCI   0
REDWOOD FALLS  CLOUDY    12   7  80 NW14G22   30.35R WCI  -3
TRACY          CLOUDY    11   7  83 NW16G23   30.35S WCI  -6
WINDOM         FLURRIES  10   9  92 NW16      30.32R WCI  -7
WORTHINGTON    CLOUDY    12   9  85 N15       30.32R WCI  -4
$$

IAZ001>003-012>014-020>022-031-032-NEZ013-014-SDZ071-270100-
NORTHWEST IOWA

CITY           SKY/WX    TMP DP  RH WIND       PRES   REMARKS
CHEROKEE       CLOUDY    19  16  88 N15G23    30.33R WCI   5
DENISON        CLOUDY    23  19  86 N14G21    30.29R WCI  11
ESTHERVILLE    MIX PCPN  14  11  87 NW23      30.30R FOG     WCI  -5
LE MARS        CLOUDY    19  16  86 N12       30.37R WCI   7
ORANGE CITY    CLOUDY    18  12  79 N15G21    30.32R WCI   3
SHELDON        CLOUDY    14  10  85 N18       30.32R WCI  -3
SIOUX CITY     CLOUDY    21  15  78 N17       30.36R WCI   7
6HR MIN TEMP:  21; 6HR MAX TEMP:  29;

SPENCER        CLOUDY    18  13  80 N20       30.31R WCI   2
6HR MIN TEMP:  18; 6HR MAX TEMP:  26; 6HR PCP: TRACE;

STORM LAKE     CLOUDY    19  18  93 N18G24    30.29R WCI   4
$$

ABBREVIATIONS USED IN REMARKS
   TC - TEMPERATURE IN CELSIUS
  WCI - WIND CHILL INDEX
   HX - HEAT INDEX
  VSB - VISIBILITY




USA.gov is the U.S. government's official web portal to all federal, state and local government web resources and services.